[[{"header":{"parameterUnit":"m.s-1","parameterCategory":1,"la1":30.2991,"la2":30.254,"lo1":-89.0895,"lo2":-89.0444,"dy":0.0017,"dx":0.0017,"nx":28,"ny":28,"refTime":"2026-01-01T09:00:00:Z","depth":0,"parameterNumber":2,"parameterNumberName":"U-component_of_WINDS"},"data":[0,0,0,0,0,0,0,0,0,0,0,0,0,0,0,0,0,0,0,0,0,0,0,0,0,0,0,0,0,0,0,0,0,0,0,0,0,0,0,0,0,0,0,0,0,0,0,0,0,0,0,0,0,0,0,0,0,0,3.6709,3.6712,0,3.6952,3.6955,3.6957,3.6979,3.6976,3.6973,3.6971,3.7225,3.7234,3.7243,0,0,0,0,0,0,0,0,0,0,0,0,0,3.6268,3.6275,3.6709,3.6712,3.6715,3.6952,3.6955,3.6958,3.6979,3.6976,3.6973,3.697,3.7222,3.7233,3.7244,0,0,0,0,0,0,0,0,0,0,0,0,0,3.648,3.6278,3.6708,3.6754,3.676,3.6951,3.6955,3.6959,3.698,3.6976,3.6972,3.6968,3.7218,3.7232,3.7245,3.7409,0,0,3.7287,3.7293,0,0,0,0,0,0,0,0,3.6468,3.6496,3.6744,3.6751,3.6758,3.6931,3.6892,3.711,3.6981,3.6896,3.6971,3.6966,3.7131,3.7151,3.7206,3.7421,3.7432,3.7289,3.7297,3.7303,3.7307,0,0,0,0,0,0,0,3.6453,3.6486,3.6805,3.6748,3.6756,3.6763,3.6789,3.6934,3.7033,3.6904,3.6906,3.6934,3.7134,3.7192,3.7212,3.7435,3.7288,3.73,3.7309,3.7314,3.7797,3.7801,0,0,0,0,0,0,3.6429,3.6473,3.6797,3.6812,3.66,3.6775,3.6803,3.688,3.7031,3.705,3.6937,3.6934,3.7171,3.7196,3.7221,3.7422,3.7303,3.7316,3.7324,3.7792,3.7798,3.7803,0,0,0,0,0,0,3.6419,3.6458,3.6788,3.6644,3.6686,3.6786,3.6872,3.6886,3.6945,3.7056,3.7074,3.6978,3.7168,3.7201,3.7361,3.7431,3.7322,3.7334,3.7787,3.7794,3.78,3.7825,0,0,0,0,0,0,3.6407,3.6454,3.6516,3.6645,3.6694,3.6923,3.6876,3.6894,3.6968,3.6966,3.71,3.7118,3.7168,3.7341,3.7375,3.7448,3.7345,3.7781,3.779,3.7798,3.7818,3.7831,3.7843,0,0,0,0,0,3.6391,3.6515,3.6519,3.6558,3.6773,3.6927,3.6955,3.7008,3.6973,3.7037,3.7109,3.7114,3.7418,3.7357,3.7396,3.7474,3.7777,3.7788,3.7798,3.7812,3.7829,3.7842,0,0,0,0,0,0,3.6393,3.6532,3.6539,3.6708,3.6805,3.693,3.7012,3.7024,3.7134,3.7128,3.7191,3.7221,3.7379,3.7443,3.7373,3.764,3.7594,3.7612,3.7592,3.7608,3.7621,3.7601,3.7357,0,0,0,0,0,3.6413,3.6525,3.6641,3.6779,3.6827,3.6911,3.698,3.7012,3.7117,3.7158,3.7242,3.7344,3.7463,3.7539,3.7655,3.7828,3.7857,3.7901,3.7913,3.7923,3.7937,3.8033,3.8054,3.7836,3.7836,3.7836,0,0,3.6456,3.6546,3.6613,3.6781,3.6861,3.6976,3.6946,3.7069,3.7156,3.7178,3.7333,3.7398,3.7517,3.7684,3.7762,3.7742,3.8004,3.7936,3.7942,3.7952,3.8046,3.8066,3.8085,3.7843,3.7842,3.7841,0,0,3.6592,3.6671,3.6794,3.6874,3.6994,3.7049,3.7078,3.7202,3.7245,3.7402,3.7421,3.7526,3.7729,3.7812,3.7881,3.8049,3.8058,3.8085,3.8149,3.8242,3.8259,3.8275,3.8334,3.8354,3.81,3.81,3.81,0,3.663,3.6803,3.6856,3.6979,3.7053,3.7077,3.7202,3.7278,3.743,3.7481,3.7456,3.7711,3.7792,3.7979,3.8019,3.8075,3.8111,3.8069,3.8252,3.8268,3.8283,3.834,3.8363,3.8102,3.8102,3.8102,3.8102,0,3.6844,3.6964,3.7049,3.7192,3.7276,3.74,3.7473,3.7552,3.7578,3.7636,3.7795,3.7894,3.8029,3.8076,3.8103,3.8267,3.8251,3.8239,3.8193,3.8306,3.836,3.8383,3.8106,3.8105,3.8104,3.8104,0,0,3.6987,3.7159,3.7189,3.7254,3.7388,3.7483,3.7608,3.7739,3.7805,3.791,3.8016,3.8187,3.8176,3.8255,3.8292,3.8373,3.8499,3.8351,3.8355,3.8374,3.8685,3.8692,3.8716,3.8506,3.851,3.8514,3.8674,0,3.7137,3.7358,3.741,3.76,3.7712,3.7736,3.7846,3.794,3.7998,3.8103,3.8168,3.8287,3.8265,3.8312,3.8394,3.8466,3.8562,3.8456,3.8606,3.8611,3.8574,3.8745,3.8753,3.8899,3.8696,3.87,3.8703,0,3.7342,3.7448,3.7649,3.7768,3.7817,3.7913,3.8037,3.8136,3.8245,3.8282,3.8369,3.8397,3.853,3.8479,3.8663,3.8589,3.8655,3.87,3.8707,3.8722,3.8662,3.8763,3.8948,3.8969,3.8737,3.8734,3.8732,0,3.7424,3.7619,3.7764,3.7819,3.7962,3.8029,3.8092,3.8197,3.8272,3.8381,3.8431,3.8555,3.8622,3.8718,3.878,3.8737,3.8959,3.8913,3.8993,3.8991,3.9037,3.9033,3.9233,3.9082,3.9081,3.9081,3.9081,0,3.7585,3.7707,3.7802,3.7891,3.8028,3.8088,3.8223,3.8286,3.8379,3.8482,3.8513,3.8609,3.8685,3.8792,3.8842,3.8986,3.9017,3.9051,3.9063,3.9048,3.9043,3.909,3.9081,3.9087,3.9086,3.9084,3.9083,0,3.77,3.7769,3.7928,3.805,3.8084,3.8179,3.8284,3.8373,3.8431,3.8561,3.8595,3.8688,3.8816,3.8887,3.9049,3.9082,3.9243,3.925,3.9205,3.921,3.9285,3.9276,3.9521,3.9556,3.9382,3.9384,3.9385,0,3.7797,3.7891,3.8022,3.8092,3.8156,3.8269,3.8345,3.8408,3.8487,3.8617,3.869,3.8819,3.8925,3.9129,3.9212,3.9335,3.9345,3.9422,3.9364,3.9345,3.9345,3.9337,3.9347,3.9432,3.9433,3.9435,3.9436,0,3.7962,3.7992,3.8099,3.8219,3.8309,3.8407,3.8505,3.8561,3.864,3.8727,3.8857,3.8939,3.9103,3.9231,3.9361,3.9428,3.9446,3.9454,3.9478,3.9463,3.9432,3.9449,3.9231,3.9447,3.9446,3.9445,3.9445,3.9444,3.8071,3.8155,3.826,3.8379,3.8459,3.8549,3.8637,3.8707,3.8815,3.8952,3.8984,3.912,3.9228,3.9404,3.9474,3.9583,3.9569,3.9605,3.9614,3.9622,3.9624,3.9416,3.9608,3.9607,3.9607,3.9607,3.9607,0,3.8236,3.8305,3.8414,3.8548,3.8642,3.8649,3.8757,3.8836,3.8955,3.9053,3.9156,3.9306,3.943,3.9523,3.965,3.972,3.9731,3.9751,3.9746,3.9761,3.963,3.9595,3.974,3.974,3.974,3.974,3.974,3.974,3.8333,3.8475,3.8517,3.8699,3.8768,3.89,3.8962,3.9045,3.9124,3.9288,3.9391,3.945,3.9547,3.9681,3.9796,3.982,3.9865,3.9884,3.9909,3.9785,3.977,3.9757,3.9724,3.9894,3.9894,4.0031,4.0032,4.0033]},{"header":{"parameterUnit":"m.s-1","parameterCategory":1,"la1":30.2991,"la2":30.254,"lo1":-89.0895,"lo2":-89.0444,"dy":0.0017,"dx":0.0017,"nx":28,"ny":28,"refTime":"2026-01-01T09:00:00:Z","depth":0,"parameterNumber":3,"parameterNumberName":"V-component_of_WINDS"},"data":[0,0,0,0,0,0,0,0,0,0,0,0,0,0,0,0,0,0,0,0,0,0,0,0,0,0,0,0,0,0,0,0,0,0,0,0,0,0,0,0,0,0,0,0,0,0,0,0,0,0,0,0,0,0,0,0,0,0,2.0343,2.0344,0,2.0407,2.0407,2.0408,2.0393,2.0391,2.039,2.0389,2.0455,2.0457,2.046,0,0,0,0,0,0,0,0,0,0,0,0,0,2.0208,2.021,2.0343,2.0344,2.0345,2.0407,2.0408,2.0408,2.0393,2.0391,2.039,2.0389,2.0454,2.0457,2.0461,0,0,0,0,0,0,0,0,0,0,0,0,0,2.0269,2.0211,2.0343,2.0344,2.0345,2.0406,2.0408,2.0409,2.0393,2.0391,2.039,2.0388,2.0453,2.0457,2.0461,2.0525,0,0,2.0474,2.0476,0,0,0,0,0,0,0,0,2.0265,2.0274,2.0343,2.0344,2.0345,2.039,2.0384,2.0448,2.0394,2.0375,2.0389,2.0387,2.0435,2.044,2.0456,2.0528,2.0531,2.0475,2.0477,2.0479,2.048,0,0,0,0,0,0,0,2.0261,2.0271,2.0368,2.0344,2.0346,2.0342,2.0348,2.0396,2.0414,2.0376,2.0375,2.0383,2.0435,2.0452,2.0458,2.0532,2.0475,2.0478,2.0481,2.0483,2.0659,2.0661,0,0,0,0,0,0,2.0256,2.0267,2.0366,2.037,2.03,2.0346,2.0353,2.0377,2.0414,2.0418,2.0385,2.0382,2.0446,2.0453,2.046,2.0537,2.0479,2.0483,2.0486,2.0657,2.0659,2.0661,0,0,0,0,0,0,2.0253,2.0265,2.0364,2.0318,2.0331,2.035,2.0378,2.038,2.0397,2.042,2.0423,2.0399,2.0445,2.0454,2.0509,2.0539,2.0485,2.0489,2.0654,2.0658,2.066,2.0692,0,0,0,0,0,0,2.0249,2.0264,2.0289,2.0319,2.0333,2.0412,2.0379,2.0382,2.0405,2.0402,2.0434,2.0438,2.0444,2.0502,2.0513,2.0544,2.0493,2.0652,2.0656,2.0659,2.0689,2.0696,2.0703,0,0,0,0,0,2.0244,2.0295,2.029,2.0302,2.0364,2.0413,2.0421,2.0427,2.0407,2.0432,2.0447,2.0437,2.0534,2.0508,2.052,2.0553,2.065,2.0655,2.0659,2.0686,2.0695,2.0702,0,0,0,0,0,0,2.0268,2.0299,2.0294,2.0356,2.0382,2.0411,2.0442,2.0436,2.0469,2.0465,2.047,2.0478,2.0534,2.0549,2.052,2.0617,2.0589,2.0596,2.0605,2.0614,2.0621,2.0616,2.0496,0,0,0,0,0,2.028,2.0317,2.0343,2.0395,2.0408,2.0423,2.0445,2.0446,2.0474,2.0485,2.0504,2.0531,2.0567,2.0591,2.0626,2.069,2.0697,2.0719,2.0726,2.0731,2.0738,2.0773,2.0783,2.0677,2.0677,2.0677,0,0,2.0306,2.0328,2.0351,2.04,2.0421,2.0459,2.0432,2.0474,2.0503,2.0491,2.0544,2.0559,2.059,2.0649,2.0677,2.0664,2.0768,2.0737,2.0742,2.0745,2.0779,2.0789,2.0798,2.068,2.0679,2.0679,0,0,2.0373,2.0393,2.0439,2.046,2.0491,2.0501,2.0511,2.0541,2.055,2.0604,2.0596,2.063,2.0692,2.0715,2.0734,2.0809,2.0801,2.082,2.0856,2.089,2.0899,2.0906,2.0933,2.0943,2.0826,2.0826,2.0826,0,2.0401,2.0459,2.0463,2.0506,2.0527,2.0518,2.0565,2.0585,2.0626,2.0642,2.0626,2.0705,2.0724,2.0789,2.0807,2.0823,2.0836,2.0816,2.0897,2.0905,2.0912,2.0937,2.0947,2.0828,2.0828,2.0828,2.0827,0,2.0492,2.0532,2.0565,2.0605,2.0631,2.0675,2.0686,2.0711,2.0711,2.0722,2.0776,2.0799,2.0839,2.0854,2.0854,2.0919,2.091,2.0896,2.0868,2.0924,2.0948,2.0958,2.0831,2.083,2.083,2.0829,0,0,2.0576,2.0618,2.063,2.0648,2.0681,2.0712,2.0756,2.0794,2.0816,2.0845,2.0882,2.0935,2.0922,2.0944,2.0946,2.0976,2.1034,2.0958,2.0959,2.0972,2.1107,2.1118,2.1129,2.1028,2.103,2.1032,2.1104,0,2.0647,2.0724,2.0728,2.0798,2.0835,2.0827,2.0865,2.089,2.0901,2.0934,2.0946,2.0984,2.0964,2.0977,2.1006,2.102,2.1061,2.1015,2.1063,2.1065,2.1056,2.1142,2.1153,2.1221,2.1114,2.1115,2.1117,0,2.0739,2.077,2.0844,2.0872,2.0888,2.0922,2.0957,2.0989,2.1017,2.1023,2.1047,2.1045,2.109,2.106,2.1121,2.109,2.111,2.112,2.1123,2.1128,2.1094,2.1149,2.1242,2.1252,2.1131,2.113,2.1129,0,2.0794,2.0854,2.0906,2.0921,2.0955,2.0979,2.0995,2.1021,2.1043,2.1074,2.1089,2.1125,2.1145,2.1172,2.118,2.1157,2.1241,2.1212,2.1247,2.1247,2.1266,2.1265,2.1364,2.1278,2.1278,2.1278,2.1277,0,2.0872,2.0917,2.093,2.0962,2.1013,2.1018,2.1068,2.1081,2.1104,2.1139,2.1133,2.1166,2.1173,2.1207,2.1213,2.1263,2.1272,2.1278,2.1279,2.1279,2.1278,2.1293,2.1288,2.128,2.128,2.1279,2.1279,0,2.0941,2.0952,2.1008,2.1036,2.1044,2.108,2.1103,2.1134,2.1144,2.1188,2.1198,2.1214,2.1254,2.1264,2.1311,2.1315,2.1374,2.137,2.1365,2.1365,2.14,2.1397,2.1512,2.1527,2.1431,2.1432,2.1432,0,2.0991,2.1026,2.1057,2.1079,2.1096,2.1132,2.1155,2.1161,2.1185,2.1219,2.1246,2.1285,2.1316,2.138,2.1396,2.1431,2.1429,2.1467,2.1434,2.1433,2.143,2.1428,2.1432,2.1473,2.1474,2.1475,2.1476,0,2.1078,2.1081,2.1115,2.115,2.1178,2.1206,2.1233,2.1252,2.1261,2.1289,2.1329,2.1353,2.1401,2.144,2.1476,2.1492,2.1486,2.1486,2.1496,2.1496,2.1492,2.1495,2.1382,2.1483,2.1482,2.1482,2.1481,2.1481,2.1139,2.1169,2.1196,2.1233,2.1254,2.128,2.131,2.1324,2.1357,2.1397,2.1398,2.1442,2.1468,2.1516,2.1534,2.1568,2.1557,2.1571,2.1575,2.1579,2.1582,2.1486,2.1575,2.1575,2.1574,2.1574,2.1574,0,2.1226,2.1242,2.1277,2.1314,2.1344,2.1335,2.1364,2.139,2.1428,2.1454,2.1485,2.1531,2.1568,2.1587,2.1624,2.1647,2.1646,2.1657,2.1656,2.1659,2.159,2.1578,2.1658,2.1658,2.1658,2.1658,2.1658,2.1658,2.1274,2.1325,2.1332,2.1393,2.1409,2.1452,2.147,2.1493,2.1513,2.1565,2.1596,2.1608,2.1631,2.1669,2.1703,2.1707,2.1721,2.1734,2.1737,2.1673,2.1664,2.1656,2.1645,2.1737,2.1737,2.1804,2.1804,2.1805]}]]